Weather History for Olney-Noble, IL

Change the Weather History Date:

Monday, August 6, 2012

  Actual Average (KEVV) Record (KEVV)
Temperature  
Mean Temperature 78 °F 77 °F  
Max Temperature 95 °F 88 °F 101 °F (1930)
Min Temperature 62 °F 67 °F 52 °F (1948)
Degree Days  
Heating Degree Days 0 0  
Month to date heating degree days 0  
Since 1 June heating degree days 6  
Since 1 July heating degree days 0  
Cooling Degree Days 14 12  
Month to date cooling degree days 75  
Year to date cooling degree days 911  
Since 1 June cooling degree days 776  
Growing Degree Days 28 (Base 50)    
Moisture  
Dew Point 59 °F    
Average Humidity 58    
Maximum Humidity 100    
Minimum Humidity 25    
Precipitation  
Precipitation 0.00 in 0.09 in 2.70 in (1998)
Month to date precipitation 0.57  
Year to date precipitation 28.51  
Snow  
Snow 0.00 in 0.00 in 0.00 in (2002)
Month to date snowfall 0.0  
Since 1 June snowfall 0.0  
Since 1 July snowfall 0.0  
Snow Depth -    
Sea Level Pressure  
Sea Level Pressure 30.08 in    
Wind  
Wind Speed 2 mph (NNW)    
Max Wind Speed 10 mph    
Max Gust Speed 9 mph    
Visibility 10 miles    
Events      
T = Trace of Precipitation, MM = Missing Value Source: NWS Daily Summary

Daily Weather History Graph

Daily Weather History Graph

Search for Another Location

Airport:

Trip Planner

Search our weather history database for the weather conditions in past years. The results will help you decide how hot, cold, wet, or windy it might be!

Date:

Astronomy

Aug. 06, 2012 Rise Set
Actual Time 5:58 AM CDT 7:57 PM CDT
Civil Twilight 5:29 AM CDT 8:26 PM CDT
Nautical Twilight 4:54 AM CDT 9:01 PM CDT
Astronomical Twilight 4:16 AM CDT 9:39 PM CDT
Moon 10:10 PM CDT (8/6) 10:43 AM CDT (8/6)
Length of Visible Light 14h 56m
Length of Day
13h 58m
Waning Gibbous, 78% of the Moon is Illuminated
Aug 6
Waning Gibbous
Aug 9
Last Quarter
Aug 17
New
Aug 24
First Quarter
Aug 31
Full

Hourly Weather History & Observations

Time (CDT) Temp. Heat Index Dew Point Humidity Pressure Visibility Wind Dir Wind Speed Gust Speed Precip Events Conditions
12:15 AM 66.2 °F - 66.2 °F 100% 30.11 in 10.0 mi Calm Calm - N/A   Clear
12:35 AM 68.0 °F - 64.4 °F 88% 30.11 in 10.0 mi Calm Calm - N/A   Clear
12:55 AM 66.2 °F - 62.6 °F 88% 30.11 in 10.0 mi Calm Calm - N/A   Clear
1:15 AM 66.2 °F - 64.4 °F 94% 30.11 in 10.0 mi Calm Calm - N/A   Clear
1:35 AM 66.2 °F - 64.4 °F 94% 30.11 in 10.0 mi Calm Calm - N/A   Clear
1:55 AM 64.4 °F - 64.4 °F 100% 30.11 in 10.0 mi Calm Calm - N/A   Clear
2:15 AM 66.2 °F - 64.4 °F 94% 30.11 in 10.0 mi Calm Calm - N/A   Clear
2:35 AM 64.4 °F - 64.4 °F 100% 30.11 in 10.0 mi Calm Calm - N/A   Clear
2:55 AM 64.4 °F - 64.4 °F 100% 30.12 in 10.0 mi Calm Calm - N/A   Clear
3:15 AM 64.4 °F - 64.4 °F 100% 30.12 in 10.0 mi North 3.5 mph - N/A   Clear
3:35 AM 64.4 °F - 62.6 °F 94% 30.12 in 10.0 mi North 3.5 mph - N/A   Clear
3:55 AM 64.4 °F - 62.6 °F 94% 30.12 in 10.0 mi Calm Calm - N/A   Clear
4:15 AM 62.6 °F - 62.6 °F 100% 30.12 in 10.0 mi Calm Calm - N/A   Clear
4:35 AM 62.6 °F - 62.6 °F 100% 30.12 in 10.0 mi Calm Calm - N/A   Clear
4:55 AM 64.4 °F - 62.6 °F 94% 30.13 in 10.0 mi Calm Calm - N/A   Clear
5:15 AM 62.6 °F - 62.6 °F 100% 30.13 in 10.0 mi Calm Calm - N/A   Clear
5:35 AM 62.6 °F - 62.6 °F 100% 30.13 in 10.0 mi Calm Calm - N/A   Clear
5:55 AM 62.6 °F - 62.6 °F 100% 30.13 in 10.0 mi Calm Calm - N/A   Clear
6:15 AM 62.6 °F - 62.6 °F 100% 30.13 in 10.0 mi East 4.6 mph - N/A   Clear
6:55 AM 66.2 °F - 62.6 °F 88% 30.13 in 10.0 mi ENE 4.6 mph - N/A   Clear
7:15 AM 69.8 °F - 62.6 °F 78% 30.14 in 10.0 mi Calm Calm - N/A   Clear
7:35 AM 71.6 °F - 64.4 °F 78% 30.13 in 10.0 mi East 4.6 mph - N/A   Clear
8:15 AM 77.0 °F - 64.4 °F 65% 30.14 in 10.0 mi East 3.5 mph - N/A   Clear
8:55 AM 82.4 °F 83.4 °F 62.6 °F 51% 30.14 in 10.0 mi East 3.5 mph - N/A   Clear
9:15 AM 84.2 °F 84.4 °F 60.8 °F 45% 30.14 in 10.0 mi East 5.8 mph - N/A   Clear
9:35 AM 86.0 °F 85.4 °F 59.0 °F 40% 30.13 in 10.0 mi SE 3.5 mph - N/A   Clear
9:55 AM 87.8 °F 86.5 °F 57.2 °F 35% 30.13 in 10.0 mi North 5.8 mph - N/A   Clear
10:15 AM 87.8 °F 86.1 °F 55.4 °F 33% 30.13 in 10.0 mi Calm Calm - N/A   Clear
10:35 AM 89.6 °F 87.3 °F 53.6 °F 29% 30.13 in 10.0 mi NNW 6.9 mph - N/A   Clear
10:55 AM 89.6 °F 87.7 °F 55.4 °F 31% 30.13 in 10.0 mi North 3.5 mph - N/A   Clear
11:15 AM 89.6 °F 87.7 °F 55.4 °F 31% 30.12 in 10.0 mi NNW 4.6 mph - N/A   Clear
11:35 AM 89.6 °F 87.3 °F 53.6 °F 29% 30.12 in 10.0 mi NNE 5.8 mph 9.2 mph N/A   Clear
11:55 AM 91.4 °F 89.4 °F 55.4 °F 29% 30.11 in 10.0 mi North 8.1 mph - N/A   Clear
12:15 PM 91.4 °F 89.1 °F 53.6 °F 28% 30.11 in 10.0 mi WNW 4.6 mph - N/A   Clear
12:35 PM 91.4 °F 89.1 °F 53.6 °F 28% 30.10 in 10.0 mi NNW 3.5 mph - N/A   Clear
12:55 PM 93.2 °F 90.8 °F 53.6 °F 26% 30.09 in 10.0 mi ENE 3.5 mph - N/A   Clear
1:15 PM 93.2 °F 90.8 °F 53.6 °F 26% 30.09 in 10.0 mi West 4.6 mph - N/A   Clear
1:35 PM 93.2 °F 90.8 °F 53.6 °F 26% 30.08 in 10.0 mi WNW 8.1 mph - N/A   Clear
1:55 PM 93.2 °F 90.8 °F 53.6 °F 26% 30.07 in 10.0 mi WNW 6.9 mph - N/A   Clear
2:15 PM 93.2 °F 90.8 °F 53.6 °F 26% 30.07 in 10.0 mi WSW 4.6 mph - N/A   Clear
2:35 PM 93.2 °F 90.8 °F 53.6 °F 26% 30.06 in 10.0 mi Calm Calm - N/A   Clear
2:55 PM 93.2 °F 90.8 °F 53.6 °F 26% 30.06 in 10.0 mi North 4.6 mph - N/A   Clear
3:15 PM 93.2 °F 90.8 °F 53.6 °F 26% 30.05 in 10.0 mi NNE 10.4 mph - N/A   Clear
3:35 PM 93.2 °F 90.8 °F 53.6 °F 26% 30.04 in 10.0 mi Calm Calm - N/A   Clear
3:55 PM 95.0 °F 92.7 °F 53.6 °F 25% 30.04 in 10.0 mi NNW 6.9 mph - N/A   Clear
4:15 PM 95.0 °F 92.7 °F 53.6 °F 25% 30.03 in 10.0 mi NNW 4.6 mph - N/A   Clear
4:35 PM 93.2 °F 90.8 °F 53.6 °F 26% 30.03 in 10.0 mi NNW 4.6 mph - N/A   Clear
4:55 PM 93.2 °F 90.8 °F 53.6 °F 26% 30.02 in 10.0 mi West 4.6 mph - N/A   Clear
5:15 PM 93.2 °F 90.8 °F 53.6 °F 26% 30.02 in 10.0 mi NNW 5.8 mph - N/A   Clear
5:35 PM 93.2 °F 90.8 °F 53.6 °F 26% 30.01 in 10.0 mi NW 5.8 mph - N/A   Clear
5:55 PM 91.4 °F 89.1 °F 53.6 °F 28% 30.01 in 10.0 mi NW 5.8 mph - N/A   Clear
6:15 PM 91.4 °F 89.1 °F 53.6 °F 28% 30.01 in 10.0 mi NNW 4.6 mph - N/A   Clear
7:15 PM 87.8 °F - 51.8 °F 29% 30.01 in 10.0 mi NNW 3.5 mph - N/A   Clear
7:35 PM 84.2 °F 82.8 °F 53.6 °F 35% 30.01 in 10.0 mi Calm Calm - N/A   Clear
7:55 PM 80.6 °F 80.5 °F 55.4 °F 42% 30.01 in 10.0 mi Calm Calm - N/A   Clear
8:15 PM 78.8 °F - 57.2 °F 47% 30.02 in 10.0 mi Calm Calm - N/A   Clear
8:35 PM 73.4 °F - 60.8 °F 65% 30.02 in 10.0 mi Calm Calm - N/A   Clear
8:55 PM 71.6 °F - 62.6 °F 73% 30.02 in 10.0 mi Calm Calm - N/A   Clear
11:15 PM 66.2 °F - 60.8 °F 83% 30.01 in 10.0 mi Calm Calm - N/A   Clear
11:35 PM 66.2 °F - 60.8 °F 83% 30.01 in 10.0 mi Calm Calm - N/A   Clear
11:55 PM 66.2 °F - 59.0 °F 78% 30.01 in 10.0 mi NW 3.5 mph - N/A   Clear